Regional Weather Roundup
Issued by NWS

Home | Current Version | Previous Version | Text Only | Print | Product List | Glossary On
Versions: 1 2 3 4 5 6 7 8 9 10 11 12 13 14 15 16 17 18 19 20 21 22 23 24 25 26 27 28 29 30 31 32 33 34 35 36 37 38 39 40 41 42 43 44 45 46 47 48 49 50
000
ASUS44 KOUN 251510
RWROK

WEATHER ROUNDUP FOR OKLAHOMA
NATIONAL WEATHER SERVICE NORMAN OK
1000 AM CDT FRI JUL 25 2014

NOTE: "FAIR" INDICATES FEW OR NO CLOUDS BELOW 12,000 FEET WITH NO
      SIGNIFICANT WEATHER AND/OR OBSTRUCTIONS TO VISIBILITY.

OKZ001>007-009>012-014-015-017-251600-
NORTHWEST OKLAHOMA AND THE PANHANDLE

CITY           SKY/WX    TMP DP  RH WIND       PRES   REMARKS
GAGE           SUNNY     86  64  47 SW24G32   29.98S
ENID/WOODRING  SUNNY     86  68  54 S15G24    29.93F
$$

OKZ016-021>023-033>039-044-045-251600-
SOUTHWEST OKLAHOMA

CITY           SKY/WX    TMP DP  RH WIND       PRES   REMARKS
LAWTON/REGL    SUNNY     86  67  52 SW8       30.00S
LAWTON/FT SILL SUNNY     86  69  56 SW10      29.99F
FREDERICK      SUNNY     87  68  52 SW12      29.98S HX  90
CLINTON        SUNNY     87  65  47 SW24G31   30.01S
HOBART         SUNNY     86  66  51 SW14      30.01S
ALTUS AFB      SUNNY     85  71  63 S9        30.00S
$$

OKZ018>020-024>031-251600-
CENTRAL OKLAHOMA

CITY           SKY/WX    TMP DP  RH WIND       PRES   REMARKS
OKLAHOMA CITY  SUNNY     84  69  60 S13       30.00S
OKC/WILEY POST SUNNY     84  69  60 S16       29.99F
OKC/TINKER AFB SUNNY     82  70  68 S15       30.01S
STILLWATER     SUNNY     83  70  64 S16       29.97S
GUTHRIE        SUNNY     84  69  60 SW12      29.97F
$$

OKZ008-013-054>072-251600-
NORTHEAST OKLAHOMA

CITY           SKY/WX    TMP DP  RH WIND       PRES   REMARKS
TULSA          MOSUNNY   82  72  71 S9G21     29.98S
TULSA/JONES    MOSUNNY   81  73  76 S14       29.99F
PONCA CITY     SUNNY     85  69  58 S9G20     29.94F
BARTLESVILLE   SUNNY     83  72  69 SW14      29.96F
MUSKOGEE       MOSUNNY   80  71  74 S13       30.03S
$$

OKZ032-040>043-046>053-073>077-251600-
SOUTH CENTRAL/SOUTHEAST OKLAHOMA

CITY           SKY/WX    TMP DP  RH WIND       PRES   REMARKS
ARDMORE/DWNTWN SUNNY     82  70  65 S9        30.02S
MCALESTER      PTSUNNY   78  72  81 S7        30.04S
$$



USA.gov is the U.S. government's official web portal to all federal, state and local government web resources and services.